Home > Weather > Aktau > Past weeks

Flag for Kazakhstan Past Weather in Aktau, Kazakhstan — Yesterday and Last 2 Weeks

Now
88 °F

Sunny.


Feels Like: 84 °F
Forecast: 72 / 89 °F
Wind: 8 mph from Southwest

Location: Aktau

Current Time: Aug 24, 2016 at 7:01:18 PM

Latest Report: Aug 24, 2016 at 6:30 PM


Visibility: 10 mi

Pressure: 30.01 "Hg

Humidity: 18%

Dew Point: 39 °F

Location of AktauLocation

Past Weather in Aktau — Graph

°F

Aktau Temperature Yesterday

Maximum temperature yesterday: 97 °F (at 2:30 PM)
Minimum temperature yesterday: 73 °F (at 11:30 PM)
Average temperature yesterday: 86 °F

High & Low Weather Summary for the Past Weeks

 TemperatureHumidityPressure
High104 °F (Aug 10, 3:00 PM)83% (Aug 15, 11:30 PM)30.09 "Hg (Aug 15, 11:30 PM)
Low63 °F (Aug 24, 7:00 AM)6% (Aug 12, 3:30 PM)29.77 "Hg (Aug 10, 6:30 PM)
Average86 °F28%29.93 "Hg
* Reported Aug 9 6:00 PM — Aug 24 6:00 PM, Aktau, Weather by CustomWeather, © 2016

Note: Actual official high and low records may vary slightly from our data, if they occured in-between our weather recording intervals... More about our weather records

Advertising

Aktau Weather History for the Previous 24 Hours

Scroll right to see more
 ConditionsComfort  
Time TempWeatherWind HumidityBarometerVisibility
6:00 PM
Wed, Aug 24
88 °FSunny.13 mph16%30.01 "Hg10 mi
5:30 PM90 °FSunny.13 mph16%30.01 "Hg10 mi
5:00 PM90 °FSunny.13 mph15%30.01 "Hg10 mi
4:30 PM90 °FSunny.15 mph15%30.04 "Hg10 mi
4:00 PM90 °FSunny.15 mph15%30.04 "Hg10 mi
3:30 PM90 °FSunny.15 mph16%30.04 "Hg10 mi
3:00 PM90 °FPassing clouds.13 mph16%30.04 "HgN/A
2:30 PM91 °FSunny.13 mph11%30.04 "Hg10 mi
2:00 PM91 °FPassing clouds.13 mph11%30.07 "HgN/A
1:30 PM91 °FSunny.15 mph11%30.07 "Hg10 mi
1:00 PM90 °FSunny.15 mph12%30.07 "Hg10 mi
12:30 PM90 °FSunny.17 mph12%30.07 "Hg10 mi
12:00 PM88 °FSunny.15 mph13%30.09 "Hg10 mi
11:30 AM88 °FSunny.15 mph13%30.09 "Hg10 mi
11:00 AM86 °FSunny.15 mph14%30.09 "Hg10 mi
10:30 AM82 °FSunny.13 mph17%30.09 "Hg10 mi
10:00 AM81 °FSunny.15 mph18%30.09 "Hg10 mi
9:30 AM81 °FSunny.15 mph18%30.09 "Hg10 mi
9:00 AM77 °FSunny.13 mph21%30.09 "Hg10 mi
8:30 AM73 °FClear.8 mph25%30.09 "Hg10 mi
8:00 AM68 °FClear.6 mph28%30.09 "Hg10 mi
7:30 AM64 °FClear.8 mph32%30.09 "Hg10 mi
7:00 AM63 °FClear.8 mph32%30.09 "Hg10 mi
6:30 AM64 °FClear.6 mph32%30.09 "Hg10 mi
6:00 AM64 °FClear.8 mph30%30.07 "Hg10 mi
5:30 AM66 °FClear.10 mph28%30.07 "Hg10 mi
5:00 AM66 °FClear.8 mph28%30.09 "Hg10 mi
4:30 AM64 °FClear.6 mph28%30.09 "Hg10 mi
4:00 AM66 °FClear.10 mph24%30.09 "Hg10 mi
3:30 AM64 °FClear.10 mph26%30.09 "Hg10 mi
3:00 AM66 °FClear.10 mph22%30.09 "Hg10 mi
2:30 AM66 °FClear.10 mph22%30.07 "Hg10 mi
2:00 AM70 °FClear.10 mph20%30.07 "Hg10 mi
1:30 AM68 °FClear.10 mph21%30.07 "Hg10 mi
1:00 AM68 °FClear.8 mph20%30.07 "Hg10 mi
12:30 AM70 °FClear.10 mph17%30.07 "Hg10 mi
12:00 AM70 °FClear.8 mph17%30.07 "Hg10 mi
11:30 PM
Tue, Aug 23
73 °FClear.10 mph15%30.07 "Hg10 mi
11:00 PM77 °FClear.10 mph13%30.07 "Hg10 mi
10:30 PM75 °FClear.10 mph14%30.07 "Hg10 mi
10:00 PM79 °FSunny.10 mph12%30.07 "Hg10 mi
9:30 PM81 °FSunny.10 mph13%30.07 "Hg10 mi
9:00 PM82 °FSunny.10 mph11%30.07 "Hg10 mi
8:30 PM88 °FSunny.10 mph10%30.07 "Hg10 mi
8:00 PM91 °FSunny.13 mph9%30.04 "Hg10 mi
7:30 PM93 °FSunny.15 mph9%30.04 "Hg10 mi
7:00 PM95 °FPassing clouds.15 mph10%30.04 "HgN/A
Weather by CustomWeather, © 2016

See weather overviewHow to use our weather pages